Tracking 31011 objects as of 13-Jul-2025
HD Live streaming from Space Station
objects crossing your sky now

CZ-2D DEB

Track CZ-2D DEB now!
10-day predictions


NORAD ID: 43413
Int'l Code: 2013-068B
Perigee: 656.8 km
Apogee: 812.2 km
Inclination: 97.9 °
Period: 99.3 minutes
Semi major axis: 7105 km
RCS: Unknown
Launch date: November 25, 2013
Source: People's Republic of China (PRC)
Launch site: Jiuquan Satellite Launch Center, China (JSC)

Note: This is SATELLITE DEBRIS
Your satellite tracking list
Your tracking list is empty




NASA's NSSDC Master Catalog

Two Line Element Set (TLE):
1 43413U 13068B   25193.85691437  .00001399  00000-0  34957-3 0  9999
2 43413  97.9229 337.2555 0109411 277.8672  81.0115 14.49475377602881
Source of the keplerian elements: AFSPC